Tracking 18630 objects as of 25-May-2017
HD Live streaming from Space Station
objects crossing your sky now

OPS 9322 (IDSCS 9)

Track OPS 9322 (IDSCS 9) now!
OPS 9322 (IDSCS 9) is classified as:


NORAD ID: 2649
Int'l Code: 1967-003B
Perigee: 33,545.3 km
Apogee: 33,830.0 km
Inclination: 2.5 °
Period: 1,329.9 minutes
Semi major axis: 40058 km
RCS: 0.1995 m2 (medium)
Launch date: January 18, 1967
Source: United States (US)
Launch site: AIR FORCE EASTERN TEST RANGE (AFETR)
Your satellite tracking list
Your tracking list is empty





NASA's NSSDC Master Catalog

Two Line Element Set (TLE):
1  2649U 67003B   17144.21601552 -.00000118 +00000-0 +00000-0 0  9997
2  2649 002.5232 055.1513 0035528 040.2586 122.2896 01.08282549103581
Source of the keplerian elements: AFSPC